This is the latest recevied weather packets stored in our database for station/object WX1NWA. If no packets are shown the sender has not sent any weather packets the latest 10 day(s).
| Time | Temp. | Humidity | Pressure | Rain* | Wind** | Luminosity | Snow |
|---|---|---|---|---|---|---|---|
| 1777812243 | 12.22° C | 55% | 1022.8 hPa | 0 mm | - | 130 W/m² | - |
| 1777811940 | 11.67° C | 58% | 1022.8 hPa | 0 mm | - | 116 W/m² | - |
| 1777811639 | 11.67° C | 56% | 1022.7 hPa | 0 mm | - | 98 W/m² | - |
| 1777811339 | 11.67° C | 55% | 1022.7 hPa | 0 mm | - | 79 W/m² | - |
| 1777811037 | 11.11° C | 57% | 1022.6 hPa | 0 mm | - | 78 W/m² | - |
| 1777810734 | 10.56° C | 59% | 1022.6 hPa | 0 mm | - | 68 W/m² | - |
| 1777810430 | 10.56° C | 58% | 1022.3 hPa | 0 mm | - | 56 W/m² | - |
| 1777810126 | 11.11° C | 59% | 1022.4 hPa | 0 mm | - | 47 W/m² | - |
| 1777809824 | 11.11° C | 58% | 1022.4 hPa | 0 mm | - | 33 W/m² | - |
| 1777809521 | 11.11° C | 55% | 1022.6 hPa | 0 mm | - | 29 W/m² | - |
| 1777809219 | 10.56° C | 56% | 1022.2 hPa | 0 mm | - | 24 W/m² | - |
| 1777808917 | 10.56° C | 56% | 1022.2 hPa | 0 mm | - | 21 W/m² | - |
| 1777808613 | 10.56° C | 56% | 1022.2 hPa | 0 mm | - | 16 W/m² | - |
| 1777808310 | 10.56° C | 57% | 1022.3 hPa | 0 mm | - | 13 W/m² | - |
| 1777808009 | 10.56° C | 57% | 1022.5 hPa | 0 mm | - | 9 W/m² | - |
| 1777807705 | 10° C | 57% | 1022.2 hPa | 0 mm | - | 6 W/m² | - |
| 1777807404 | 10° C | 57% | 1022.3 hPa | 0 mm | - | 3 W/m² | - |
| 1777807104 | 10° C | 56% | 1022.2 hPa | 0 mm | - | 1 W/m² | - |
| 1777806802 | 10° C | 56% | 1022 hPa | 0 mm | - | 0 W/m² | - |
| 1777806497 | 10° C | 55% | 1022.3 hPa | 0 mm | - | 0 W/m² | - |
| 1777806194 | 10° C | 55% | 1022 hPa | 0 mm | - | 0 W/m² | - |
| 1777805891 | 10° C | 55% | 1022.2 hPa | 0 mm | - | 0 W/m² | - |
| 1777805588 | 10° C | 55% | 1021.9 hPa | 0 mm | - | 0 W/m² | - |
| 1777805286 | 10° C | 55% | 1021.8 hPa | 0 mm | - | 0 W/m² | - |
| 1777804983 | 10° C | 54% | 1022 hPa | 0 mm | - | 0 W/m² | - |
* Rain latest hour (hover to see other rain measurements)
** Current wind speed in m/s (hover to see current wind gust speed)